loading
|

ATLAS D DEB, 2327

Orbit data source: Space-Track

ATLAS D DEB, 2327 is space debris in LEO originally from a launch on Thu, 14 Jul 1966 UTC launched from the Air Force Western Test Range (AFWTR). Debris objects in space refer to the collection of defunct objects orbiting the Earth. Examples of debris include non-operational satellites, rocket bodies, and fragments generated from explosions, collisions, or faulty payload assembly.

Loading next visibility...
Loading greatness...
ATLAS D DEB details
Identifier
2327, 1966-063B
Orbit
LEO
Last TLE update21 hours ago
Origin
Flag of USUSAF OAR (US)
ManufacturerGoodyear
MissionSpacecraft
Bus & MotorCONTAINER, Unknown motor
Mass2 kg wet, 2 kg dry
Launch date (UTC)
1966-07-14 (58 years ago)
Launch vehicleUnknown
Launch site
Air Force Western Test Range (AFWTR)
Object type
Payload
Rocket body
Debris
Shape & HBRHalf Cyl, 0.5 m
Radar Cross Section0.210 m², Medium (>0.1 m² and < 1m²)

Expand to show TLE details & history

TLE from 21 hours ago
0 ATLAS D DEB
1 02327U 66063B   24280.83037718  .00005405  00000-0  32217-2 0  9999
2 02327 144.1959 337.5497 0032149 344.0184  15.9495 14.03364143951120
Epoch: 2024-10-06T19:55Z
Definitive object data (Epoch: 2024-10-06T19:55:44.588Z)
Latitude-0.00005°
Longitude22.64728°
Altitude858.782 km
Speed7.437 km/s
True Right ascension22h 30m 11s
True Declination0° 00' 00"
Sunlit
Object was in full shadow at TLE epoch
Predictive object data (real-time)
Latitude31.05931°
Longitude-29.05406°
Altitude874.613 km
Speed7.424 km/s
Apparent Right ascension20h 41m 51s
Apparent Declination-2° 01' 55"
Sunlit
Object is in daylight
Predictive observer data (real-time)
Local Sidereal Time10:49:31
Azimuth45.615° ENE
Elevation-42.328°
Doppler factor1
Orbital elements
Apogee908.477 km
Perigee861.776 km
Semi-major axis7,263.263 km
Eccentricity0.0032149
Inclination144.1959°
RAAN337.5497°
Arg. of periapsis344.0184°
True anomaly16.05113°
Mean anomaly15.9495°
Eccentric anomaly16.00027°
Mean motion3.50627 °/min
BSTAR0.0032217
Period102.67 mins
No data available
No data available

ATLAS D DEB Visibility forecast

Observer location: 39.9160978°, -105.1181434

ATLAS D DEB is not visible in the next 10 days
Span
Click to sort rows by Start time (UTC) header in descending order
Start Az.
Max El. time (UTC)
Max El. Az.
Max El.
End time (UTC)
End Az.